Location: Fluertsh�userhof
(48.7537°N, 10.3850°E)
Time: 09:32:44
(UTC+00:00)

USA 238 - Pass Details

Date: 18 September 2020
Orbit: 1006 x 1206 km, 63.4° (Epoch: 25 October)

Event Time Altitude Azimuth Distance (km) Brightness Sun altitude
Rises 19:32:23 0° 317° (NW) 3,940 8.0 -21.0°
Reaches altitude 10° 19:35:01 10° 316° (NW) 3,007 7.1 -21.4°
Maximum altitude 19:42:12 74° 233° (SW) 1,206 3.9 -22.5°
Enters shadow 19:45:44 34° 156° (SSE) 1,833 4.5 -23.0°
